QPF
0.07 0.05 0.05 0.04 0.04 0.03 0.04 0.05 0.04 0.05 0.06 0.03 0.02 0.02 0.03 0.03 0.02 0.02 0.03 0.02 0.03 0.03 0.06 0.06 0.05 0.05 0.05 0.06 0.05 0.05 0.02 0.02 0.01 0.01 0.02 0.02 0.03 0.04 0.04 0.02 0.02 0.02 0.02
0.07 0.06 0.05 0.05 0.04 0.04 0.05 0.04 0.03 0.04 0.05 0.04 0.02 0.02 0.02 0.02 0.02 0.03 0.02 0.03 0.03 0.03 0.04 0.04 0.06 0.07 0.06 0.07 0.07 0.06 0.03 0.01 0.01 0.02 0.02 0.02 0.02 0.03 0.04 0.04 0.03 0.03 0.03
0.07 0.06 0.06 0.05 0.05 0.04 0.05 0.05 0.05 0.04 0.04 0.04 0.05 0.03 0.03 0.04 0.04 0.04 0.03 0.04 0.04 0.03 0.03 0.04 0.06 0.07 0.06 0.06 0.07 0.05 0.03 0.02 0.02 0.02 0.03 0.03 0.02 0.02 0.03 0.03 0.03 0.03 0.02
0.06 0.06 0.05 0.05 0.06 0.05 0.04 0.06 0.06 0.07 0.06 0.06 0.08 0.06 0.04 0.05 0.04 0.05 0.03 0.03 0.06 0.06 0.05 0.04 0.04 0.06 0.07 0.08 0.07 0.06 0.05 0.04 0.04 0.03 0.03 0.03 0.03 0.03 0.03 0.02 0.02 0.02 0.01
0.04 0.06 0.05 0.06 0.07 0.06 0.05 0.03 0.05 0.07 0.09 0.12 0.09 0.07 0.04 0.04 0.05 0.04 0.02 0.02 0.05 0.04 0.05 0.05 0.04 0.05 0.07 0.08 0.09 0.09 0.07 0.07 0.06 0.05 0.04 0.05 0.05 0.04 0.03 0.03 0.03 0.02 0.02
0.05 0.06 0.06 0.08 0.08 0.08 0.09 0.08 0.10 0.10 0.09 0.10 0.05 0.06 0.05 0.03 0.04 0.05 0.04 0.04 0.04 0.02 0.02 0.04 0.06 0.06 0.06 0.08 0.10 0.10 0.09 0.09 0.07 0.06 0.06 0.06 0.06 0.04 0.04 0.03 0.03 0.03 0.03
0.04 0.07 0.06 0.08 0.08 0.08 0.08 0.09 0.10 0.09 0.07 0.07 0.08 0.09 0.07 0.03 0.04 0.05 0.04 0.05 0.04 0.02 0.02 0.06 0.09 0.10 0.07 0.05 0.07 0.07 0.09 0.10 0.09 0.10 0.09 0.08 0.07 0.06 0.05 0.04 0.04 0.03 0.03
0.04 0.05 0.08 0.09 0.08 0.09 0.08 0.09 0.10 0.11 0.08 0.07 0.08 0.08 0.07 0.07 0.05 0.02 0.03 0.04 0.04 0.03 0.03 0.04 0.07 0.10 0.07 0.08 0.06 0.04 0.06 0.08 0.12 0.13 0.10 0.09 0.08 0.07 0.05 0.05 0.05 0.04 0.05
0.03 0.05 0.08 0.08 0.08 0.06 0.09 0.12 0.11 0.12 0.10 0.08 0.07 0.08 0.08 0.10 0.08 0.05 0.03 0.03 0.03 0.05 0.05 0.03 0.03 0.06 0.06 0.07 0.06 0.04 0.03 0.04 0.08 0.10 0.09 0.08 0.08 0.07 0.05 0.05 0.06 0.06 0.06
0.04 0.04 0.06 0.08 0.10 0.08 0.10 0.09 0.08 0.12 0.12 0.10 0.08 0.08 0.08 0.11 0.11 0.08 0.04 0.02 0.03 0.04 0.04 0.03 0.04 0.04 0.05 0.08 0.07 0.04 0.04 0.05 0.06 0.08 0.10 0.12 0.12 0.10 0.07 0.07 0.07 0.07 0.07
0.05 0.05 0.08 0.10 0.12 0.10 0.09 0.09 0.11 0.13 0.12 0.11 0.09 0.09 0.10 0.11 0.10 0.11 0.08 0.05 0.04 0.03 0.05 0.04 0.04 0.04 0.05 0.07 0.09 0.04 0.03 0.06 0.06 0.06 0.09 0.12 0.13 0.12 0.12 0.14 0.13 0.16 0.17
0.07 0.08 0.08 0.09 0.10 0.10 0.10 0.10 0.09 0.10 0.11 0.12 0.11 0.10 0.10 0.11 0.12 0.13 0.11 0.08 0.06 0.04 0.04 0.04 0.04 0.05 0.05 0.06 0.06 0.03 0.02 0.03 0.04 0.05 0.06 0.07 0.09 0.10 0.13 0.14 0.15 0.16 0.16
0.08 0.10 0.07 0.09 0.08 0.08 0.08 0.09 0.09 0.09 0.11 0.12 0.12 0.10 0.10 0.11 0.14 0.14 0.12 0.09 0.08 0.06 0.05 0.02 0.02 0.03 0.04 0.04 0.04 0.03 0.03 0.04 0.05 0.04 0.04 0.04 0.04 0.06 0.07 0.09 0.12 0.16 0.20
0.06 0.07 0.07 0.07 0.08 0.08 0.07 0.08 0.07 0.07 0.08 0.09 0.08 0.12 0.12 0.11 0.12 0.12 0.12 0.12 0.11 0.08 0.06 0.04 0.04 0.05 0.05 0.05 0.05 0.04 0.03 0.04 0.04 0.05 0.06 0.06 0.06 0.06 0.08 0.08 0.10 0.12 0.14
0.06 0.06 0.06 0.05 0.06 0.06 0.07 0.08 0.06 0.05 0.06 0.07 0.10 0.14 0.12 0.08 0.07 0.09 0.10 0.12 0.14 0.12 0.10 0.09 0.08 0.06 0.05 0.04 0.05 0.04 0.04 0.06 0.04 0.04 0.05 0.06 0.06 0.06 0.07 0.07 0.08 0.09 0.10
0.05 0.06 0.06 0.07 0.07 0.07 0.07 0.09 0.08 0.06 0.06 0.08 0.10 0.10 0.09 0.06 0.06 0.07 0.08 0.10 0.13 0.13 0.11 0.08 0.07 0.07 0.06 0.05 0.05 0.04 0.04 0.04 0.03 0.03 0.04 0.04 0.05 0.04 0.04 0.05 0.06 0.08 0.09
0.05 0.05 0.06 0.06 0.06 0.06 0.07 0.09 0.09 0.08 0.06 0.07 0.08 0.10 0.10 0.09 0.07 0.07 0.08 0.09 0.10 0.12 0.10 0.08 0.10 0.10 0.09 0.09 0.09 0.08 0.06 0.05 0.05 0.05 0.05 0.05 0.04 0.04 0.05 0.06 0.08 0.11 0.11
0.04 0.04 0.03 0.04 0.04 0.05 0.07 0.07 0.09 0.10 0.09 0.08 0.08 0.08 0.08 0.09 0.09 0.08 0.08 0.08 0.09 0.10 0.09 0.08 0.09 0.09 0.10 0.10 0.10 0.09 0.09 0.08 0.08 0.08 0.06 0.05 0.05 0.05 0.05 0.05 0.06 0.08 0.10
0.04 0.03 0.02 0.03 0.04 0.05 0.05 0.05 0.06 0.06 0.05 0.05 0.05 0.06 0.07 0.10 0.11 0.11 0.11 0.11 0.10 0.10 0.10 0.09 0.09 0.09 0.10 0.09 0.08 0.08 0.07 0.06 0.06 0.06 0.05 0.04 0.04 0.04 0.04 0.04 0.04 0.05 0.06
0.03 0.03 0.03 0.02 0.03 0.03 0.03 0.03 0.03 0.03 0.03 0.04 0.04 0.05 0.05 0.06 0.08 0.09 0.08 0.08 0.08 0.09 0.09 0.09 0.10 0.10 0.10 0.10 0.09 0.09 0.09 0.07 0.07 0.07 0.07 0.06 0.05 0.05 0.05 0.05 0.04 0.05 0.05
0.03 0.03 0.03 0.04 0.04 0.04 0.04 0.04 0.03 0.03 0.04 0.04 0.04 0.05 0.06 0.05 0.04 0.04 0.04 0.04 0.04 0.05 0.07 0.07 0.07 0.07 0.08 0.10 0.10 0.09 0.08 0.08 0.08 0.08 0.07 0.07 0.06 0.06 0.06 0.05 0.05 0.05 0.05
0.03 0.04 0.05 0.06 0.06 0.05 0.04 0.04 0.03 0.04 0.04 0.04 0.04 0.04 0.03 0.04 0.03 0.03 0.03 0.03 0.03 0.04 0.06 0.08 0.08 0.08 0.08 0.07 0.08 0.07 0.07 0.07 0.09 0.09 0.08 0.08 0.06 0.05 0.04 0.03 0.05 0.05 0.06
0.03 0.06 0.08 0.08 0.09 0.08 0.06 0.04 0.03 0.04 0.05 0.04 0.04 0.03 0.02 0.02 0.03 0.03 0.04 0.04 0.04 0.04 0.04 0.05 0.06 0.06 0.07 0.05 0.05 0.05 0.05 0.06 0.08 0.08 0.07 0.07 0.05 0.03 0.03 0.03 0.03 0.03 0.04
0.03 0.03 0.05 0.06 0.06 0.07 0.07 0.06 0.05 0.04 0.04 0.04 0.04 0.03 0.03 0.03 0.03 0.02 0.02 0.02 0.02 0.02 0.02 0.02 0.02 0.03 0.03 0.03 0.03 0.04 0.05 0.06 0.06 0.05 0.04 0.03 0.03 0.03 0.02 0.02 0.02 0.02 0.02
0.03 0.03 0.04 0.03 0.03 0.03 0.04 0.03 0.02 0.02 0.02 0.02 0.02 0.02 0.02 0.03 0.02 0.02 0.01 0.01 0.01 0.01 0.02 0.01 0.01 0.02 0.02 0.02 0.02 0.03 0.04 0.04 0.05 0.04 0.03 0.03 0.03 0.03 0.02 0.02 0.01 0.01 0.01
0.03 0.02 0.02 0.03 0.03 0.02 0.02 0.02 0.02 0.01 0.01 0.02 0.02 0.03 0.03 0.03 0.02 0.02 0.01 0.01 0.01 0.01 0.01 0.01 0.01 0.01 0.02 0.02 0.03 0.02 0.03 0.03 0.03 0.03 0.02 0.02 0.02 0.02 0.02 0.01 0.01 0.01 0.02
MSLP
1016.61 1016.81 1016.99 1017.15 1017.32 1017.50 1017.69 1017.90 1018.10 1018.26 1018.36 1018.40 1018.39 1018.34 1018.32 1018.36 1018.51 1018.80 1019.22 1019.73 1020.29 1020.83 1021.29 1021.64 1021.87 1021.98 1022.03 1022.04 1022.07 1022.14 1022.25 1022.41 1022.58 1022.75 1022.89 1022.99 1023.05 1023.08 1023.10 1023.12 1023.17 1023.25 1023.35
1016.89 1017.11 1017.29 1017.45 1017.60 1017.74 1017.90 1018.06 1018.21 1018.35 1018.44 1018.49 1018.49 1018.48 1018.47 1018.51 1018.65 1018.89 1019.24 1019.68 1020.16 1020.64 1021.07 1021.42 1021.68 1021.84 1021.94 1022.01 1022.07 1022.15 1022.26 1022.40 1022.55 1022.69 1022.81 1022.90 1022.97 1023.01 1023.05 1023.09 1023.15 1023.22 1023.32
1017.12 1017.34 1017.53 1017.69 1017.82 1017.94 1018.05 1018.18 1018.31 1018.43 1018.53 1018.59 1018.62 1018.63 1018.63 1018.67 1018.76 1018.93 1019.19 1019.52 1019.90 1020.30 1020.68 1021.02 1021.30 1021.52 1021.69 1021.82 1021.93 1022.04 1022.16 1022.28 1022.41 1022.52 1022.62 1022.71 1022.78 1022.85 1022.91 1022.98 1023.05 1023.14 1023.23
1017.23 1017.46 1017.66 1017.81 1017.93 1018.04 1018.14 1018.24 1018.36 1018.48 1018.59 1018.67 1018.73 1018.76 1018.77 1018.79 1018.83 1018.91 1019.06 1019.27 1019.54 1019.84 1020.16 1020.47 1020.76 1021.02 1021.25 1021.44 1021.61 1021.76 1021.90 1022.02 1022.13 1022.23 1022.32 1022.40 1022.48 1022.57 1022.66 1022.75 1022.86 1022.96 1023.05
1017.22 1017.44 1017.64 1017.80 1017.93 1018.03 1018.13 1018.23 1018.35 1018.47 1018.60 1018.71 1018.79 1018.84 1018.86 1018.85 1018.84 1018.85 1018.88 1018.97 1019.11 1019.30 1019.54 1019.80 1020.09 1020.37 1020.64 1020.89 1021.11 1021.30 1021.46 1021.59 1021.70 1021.79 1021.88 1021.96 1022.05 1022.16 1022.27 1022.40 1022.53 1022.65 1022.76
1017.09 1017.31 1017.52 1017.69 1017.83 1017.94 1018.05 1018.16 1018.29 1018.42 1018.56 1018.69 1018.79 1018.86 1018.88 1018.86 1018.81 1018.74 1018.68 1018.65 1018.67 1018.75 1018.89 1019.09 1019.34 1019.62 1019.91 1020.20 1020.46 1020.69 1020.88 1021.02 1021.14 1021.23 1021.31 1021.40 1021.50 1021.62 1021.76 1021.91 1022.06 1022.20 1022.32
1016.91 1017.12 1017.33 1017.53 1017.69 1017.83 1017.96 1018.08 1018.21 1018.35 1018.49 1018.63 1018.74 1018.83 1018.86 1018.83 1018.76 1018.64 1018.50 1018.38 1018.29 1018.25 1018.29 1018.41 1018.60 1018.84 1019.12 1019.42 1019.70 1019.96 1020.17 1020.34 1020.48 1020.58 1020.66 1020.75 1020.86 1020.98 1021.12 1021.28 1021.44 1021.60 1021.75
1016.74 1016.95 1017.17 1017.39 1017.59 1017.76 1017.91 1018.04 1018.17 1018.29 1018.42 1018.56 1018.67 1018.76 1018.80 1018.79 1018.71 1018.57 1018.39 1018.19 1018.01 1017.87 1017.80 1017.82 1017.92 1018.10 1018.34 1018.62 1018.90 1019.18 1019.41 1019.61 1019.76 1019.88 1019.97 1020.06 1020.15 1020.26 1020.39 1020.54 1020.71 1020.88 1021.04
1016.62 1016.83 1017.07 1017.32 1017.56 1017.76 1017.92 1018.06 1018.17 1018.28 1018.38 1018.49 1018.60 1018.69 1018.75 1018.75 1018.69 1018.56 1018.36 1018.12 1017.88 1017.65 1017.47 1017.37 1017.37 1017.46 1017.63 1017.86 1018.13 1018.41 1018.66 1018.88 1019.06 1019.19 1019.29 1019.37 1019.44 1019.52 1019.62 1019.74 1019.88 1020.05 1020.23
1016.57 1016.79 1017.05 1017.34 1017.60 1017.83 1018.01 1018.14 1018.23 1018.30 1018.37 1018.45 1018.54 1018.63 1018.71 1018.74 1018.72 1018.62 1018.43 1018.18 1017.89 1017.59 1017.31 1017.10 1016.97 1016.95 1017.03 1017.20 1017.44 1017.70 1017.97 1018.22 1018.42 1018.57 1018.68 1018.74 1018.78 1018.81 1018.85 1018.92 1019.02 1019.17 1019.35
1016.55 1016.78 1017.08 1017.39 1017.69 1017.94 1018.13 1018.24 1018.31 1018.34 1018.36 1018.40 1018.47 1018.57 1018.67 1018.75 1018.78 1018.73 1018.59 1018.35 1018.03 1017.67 1017.30 1016.98 1016.73 1016.59 1016.57 1016.67 1016.86 1017.11 1017.39 1017.66 1017.89 1018.06 1018.16 1018.20 1018.20 1018.17 1018.15 1018.14 1018.19 1018.29 1018.44
1016.51 1016.77 1017.09 1017.43 1017.75 1018.01 1018.20 1018.30 1018.33 1018.33 1018.31 1018.33 1018.38 1018.49 1018.62 1018.76 1018.85 1018.87 1018.77 1018.56 1018.24 1017.84 1017.40 1016.97 1016.61 1016.36 1016.25 1016.27 1016.41 1016.64 1016.93 1017.23 1017.48 1017.67 1017.78 1017.80 1017.75 1017.65 1017.54 1017.46 1017.42 1017.45 1017.57
1016.41 1016.68 1017.02 1017.38 1017.71 1017.98 1018.17 1018.25 1018.26 1018.23 1018.18 1018.18 1018.24 1018.36 1018.53 1018.73 1018.89 1018.98 1018.95 1018.78 1018.47 1018.04 1017.55 1017.04 1016.59 1016.24 1016.03 1015.98 1016.09 1016.31 1016.60 1016.92 1017.21 1017.42 1017.53 1017.53 1017.44 1017.27 1017.08 1016.90 1016.77 1016.72 1016.76
1016.21 1016.50 1016.84 1017.21 1017.55 1017.82 1017.99 1018.07 1018.07 1018.02 1017.96 1017.95 1018.02 1018.17 1018.39 1018.64 1018.88 1019.03 1019.07 1018.94 1018.65 1018.22 1017.69 1017.13 1016.61 1016.18 1015.91 1015.81 1015.88 1016.09 1016.40 1016.74 1017.06 1017.29 1017.41 1017.40 1017.27 1017.05 1016.77 1016.50 1016.27 1016.12 1016.08
1015.94 1016.22 1016.57 1016.93 1017.26 1017.53 1017.70 1017.77 1017.76 1017.71 1017.66 1017.66 1017.74 1017.92 1018.18 1018.48 1018.78 1019.00 1019.09 1019.02 1018.76 1018.34 1017.80 1017.21 1016.65 1016.18 1015.86 1015.73 1015.78 1015.99 1016.31 1016.68 1017.02 1017.28 1017.41 1017.40 1017.24 1016.97 1016.63 1016.27 1015.94 1015.70 1015.55
1015.63 1015.91 1016.24 1016.60 1016.92 1017.18 1017.35 1017.42 1017.41 1017.36 1017.32 1017.33 1017.43 1017.64 1017.93 1018.27 1018.62 1018.89 1019.03 1019.00 1018.78 1018.38 1017.86 1017.27 1016.70 1016.21 1015.87 1015.72 1015.77 1015.98 1016.31 1016.70 1017.07 1017.35 1017.50 1017.49 1017.33 1017.02 1016.63 1016.20 1015.80 1015.46 1015.22
1015.37 1015.63 1015.95 1016.29 1016.60 1016.85 1017.01 1017.09 1017.09 1017.05 1017.02 1017.05 1017.16 1017.38 1017.68 1018.05 1018.41 1018.71 1018.89 1018.90 1018.72 1018.37 1017.88 1017.32 1016.76 1016.29 1015.96 1015.80 1015.85 1016.06 1016.40 1016.79 1017.18 1017.48 1017.65 1017.65 1017.49 1017.18 1016.77 1016.31 1015.85 1015.44 1015.12
1015.19 1015.44 1015.75 1016.07 1016.38 1016.62 1016.79 1016.87 1016.88 1016.85 1016.83 1016.86 1016.97 1017.18 1017.48 1017.84 1018.21 1018.52 1018.72 1018.76 1018.63 1018.33 1017.89 1017.38 1016.87 1016.42 1016.11 1015.97 1016.00 1016.21 1016.54 1016.93 1017.32 1017.63 1017.82 1017.84 1017.71 1017.42 1017.02 1016.55 1016.07 1015.63 1015.27
1015.12 1015.37 1015.67 1015.99 1016.29 1016.54 1016.71 1016.80 1016.81 1016.79 1016.77 1016.80 1016.90 1017.09 1017.36 1017.70 1018.04 1018.35 1018.56 1018.63 1018.54 1018.30 1017.93 1017.49 1017.03 1016.63 1016.35 1016.21 1016.24 1016.42 1016.73 1017.10 1017.47 1017.78 1017.98 1018.04 1017.94 1017.70 1017.34 1016.91 1016.46 1016.03 1015.66
1015.14 1015.40 1015.70 1016.03 1016.34 1016.59 1016.77 1016.87 1016.90 1016.88 1016.86 1016.87 1016.95 1017.10 1017.34 1017.63 1017.95 1018.23 1018.45 1018.54 1018.50 1018.32 1018.03 1017.66 1017.27 1016.92 1016.66 1016.53 1016.54 1016.69 1016.94 1017.27 1017.61 1017.91 1018.13 1018.22 1018.18 1018.01 1017.73 1017.38 1017.00 1016.63 1016.30
1015.21 1015.48 1015.80 1016.14 1016.46 1016.73 1016.93 1017.04 1017.09 1017.08 1017.05 1017.05 1017.09 1017.21 1017.40 1017.65 1017.93 1018.19 1018.40 1018.52 1018.53 1018.41 1018.20 1017.90 1017.58 1017.28 1017.04 1016.90 1016.88 1016.98 1017.18 1017.45 1017.74 1018.02 1018.24 1018.37 1018.40 1018.33 1018.16 1017.92 1017.65 1017.38 1017.13
1015.28 1015.57 1015.90 1016.26 1016.60 1016.89 1017.11 1017.25 1017.31 1017.31 1017.28 1017.27 1017.29 1017.38 1017.53 1017.74 1017.98 1018.23 1018.44 1018.58 1018.63 1018.58 1018.43 1018.21 1017.95 1017.69 1017.47 1017.31 1017.25 1017.29 1017.41 1017.61 1017.85 1018.11 1018.33 1018.51 1018.61 1018.65 1018.61 1018.51 1018.38 1018.23 1018.09
1015.32 1015.62 1015.97 1016.34 1016.70 1017.01 1017.26 1017.41 1017.50 1017.52 1017.51 1017.50 1017.51 1017.58 1017.70 1017.88 1018.10 1018.33 1018.54 1018.70 1018.79 1018.79 1018.71 1018.55 1018.35 1018.12 1017.90 1017.73 1017.62 1017.59 1017.65 1017.77 1017.96 1018.18 1018.41 1018.63 1018.82 1018.96 1019.06 1019.11 1019.12 1019.11 1019.10
1015.33 1015.63 1015.99 1016.37 1016.74 1017.07 1017.33 1017.51 1017.62 1017.67 1017.69 1017.69 1017.72 1017.78 1017.89 1018.05 1018.25 1018.47 1018.68 1018.86 1018.98 1019.03 1019.00 1018.90 1018.73 1018.53 1018.32 1018.13 1017.98 1017.89 1017.87 1017.93 1018.07 1018.26 1018.49 1018.75 1019.01 1019.25 1019.47 1019.65 1019.81 1019.93 1020.03
1015.36 1015.66 1016.01 1016.38 1016.75 1017.08 1017.36 1017.56 1017.70 1017.78 1017.83 1017.86 1017.90 1017.98 1018.09 1018.24 1018.43 1018.64 1018.85 1019.03 1019.17 1019.25 1019.26 1019.19 1019.06 1018.89 1018.68 1018.48 1018.29 1018.16 1018.09 1018.10 1018.19 1018.35 1018.58 1018.87 1019.18 1019.50 1019.81 1020.11 1020.36 1020.58 1020.77
1015.46 1015.75 1016.08 1016.44 1016.79 1017.11 1017.39 1017.60 1017.77 1017.88 1017.96 1018.02 1018.09 1018.18 1018.30 1018.45 1018.63 1018.82 1019.02 1019.20 1019.34 1019.43 1019.46 1019.42 1019.32 1019.16 1018.97 1018.76 1018.56 1018.40 1018.29 1018.26 1018.32 1018.46 1018.68 1018.97 1019.31 1019.68 1020.05 1020.41 1020.73 1021.01 1021.24
Thickness
5750 5749 5747 5747 5749 5749 5748 5747 5747 5746 5746 5747 5748 5748 5747 5747 5747 5747 5742 5737 5735 5734 5733 5731 5730 5729 5727 5726 5724 5723 5722 5721 5719 5718 5717 5715 5714 5713 5711 5710 5708 5707 5706
5749 5748 5748 5747 5748 5748 5749 5748 5748 5747 5747 5748 5748 5747 5747 5747 5745 5745 5744 5740 5736 5734 5733 5732 5731 5729 5728 5726 5724 5723 5722 5721 5719 5718 5716 5715 5714 5712 5711 5709 5708 5707 5705
5748 5749 5749 5748 5749 5748 5747 5747 5747 5748 5748 5748 5748 5748 5748 5747 5746 5745 5745 5743 5740 5736 5734 5733 5731 5730 5728 5727 5725 5723 5722 5721 5719 5718 5716 5715 5713 5712 5710 5709 5708 5706 5705
5749 5748 5750 5750 5748 5749 5749 5748 5749 5748 5749 5749 5748 5749 5748 5747 5746 5745 5745 5744 5743 5741 5737 5734 5732 5730 5729 5727 5725 5724 5722 5721 5719 5718 5716 5714 5713 5712 5710 5709 5707 5706 5704
5750 5749 5750 5750 5748 5750 5750 5751 5750 5749 5747 5747 5748 5748 5749 5748 5747 5747 5746 5745 5743 5741 5740 5735 5733 5731 5729 5728 5726 5724 5723 5721 5719 5717 5716 5714 5713 5712 5710 5709 5707 5705 5703
5750 5750 5750 5749 5750 5750 5749 5749 5747 5747 5747 5746 5749 5749 5749 5750 5749 5748 5747 5746 5744 5742 5741 5739 5735 5733 5730 5728 5726 5725 5723 5721 5719 5718 5716 5714 5713 5711 5710 5708 5706 5704 5703
5751 5750 5752 5750 5750 5750 5749 5749 5748 5746 5746 5747 5745 5744 5747 5750 5750 5748 5748 5747 5746 5743 5741 5739 5737 5735 5733 5729 5727 5725 5723 5722 5720 5718 5717 5715 5713 5711 5709 5707 5705 5704 5702
5752 5752 5750 5751 5751 5749 5748 5747 5746 5745 5746 5747 5743 5740 5739 5742 5745 5749 5747 5745 5744 5743 5741 5739 5737 5734 5734 5732 5729 5726 5723 5721 5720 5718 5716 5714 5712 5710 5708 5706 5704 5702 5700
5753 5751 5751 5751 5750 5750 5749 5747 5747 5744 5743 5745 5746 5741 5736 5734 5739 5744 5743 5743 5741 5740 5740 5738 5736 5734 5732 5731 5729 5726 5723 5721 5719 5718 5716 5714 5712 5709 5707 5705 5703 5700 5698
5753 5752 5751 5750 5750 5751 5749 5748 5750 5746 5743 5742 5743 5743 5742 5741 5734 5733 5738 5741 5739 5737 5737 5737 5735 5732 5730 5728 5726 5725 5722 5720 5718 5716 5714 5712 5710 5707 5705 5703 5700 5698 5696
5754 5753 5751 5750 5749 5750 5749 5748 5747 5745 5744 5743 5742 5742 5740 5739 5738 5731 5728 5732 5734 5735 5734 5733 5732 5731 5728 5726 5724 5723 5720 5718 5716 5714 5712 5709 5707 5704 5702 5700 5698 5695 5693
5754 5753 5752 5750 5750 5749 5748 5746 5745 5744 5744 5742 5742 5741 5739 5737 5735 5733 5729 5727 5727 5729 5730 5729 5728 5726 5725 5723 5722 5719 5717 5715 5712 5710 5708 5706 5704 5701 5699 5697 5695 5692 5690
5754 5753 5752 5750 5749 5748 5747 5746 5744 5744 5743 5741 5740 5741 5741 5739 5738 5735 5730 5727 5724 5725 5724 5724 5723 5722 5720 5719 5717 5714 5712 5710 5709 5707 5704 5702 5699 5697 5695 5693 5690 5688 5685
5756 5754 5751 5749 5748 5747 5746 5745 5744 5743 5742 5741 5741 5739 5739 5739 5737 5735 5731 5725 5720 5719 5719 5717 5718 5717 5715 5713 5711 5709 5708 5706 5704 5702 5699 5697 5694 5692 5690 5687 5684 5682 5679
5755 5753 5750 5748 5747 5745 5744 5743 5743 5741 5741 5741 5741 5739 5737 5738 5736 5734 5731 5727 5720 5714 5713 5714 5712 5711 5709 5706 5705 5703 5702 5699 5697 5695 5693 5691 5688 5685 5683 5680 5677 5674 5672
5753 5751 5749 5747 5745 5744 5743 5741 5741 5740 5738 5738 5737 5736 5734 5735 5733 5731 5728 5725 5722 5717 5712 5713 5709 5707 5704 5701 5698 5697 5695 5692 5690 5688 5686 5683 5681 5678 5675 5672 5670 5667 5664
5753 5750 5748 5746 5744 5742 5741 5739 5739 5737 5736 5735 5734 5733 5731 5730 5729 5728 5726 5724 5721 5717 5711 5708 5705 5701 5698 5695 5692 5690 5688 5686 5682 5679 5677 5675 5672 5670 5667 5665 5662 5659 5656
5752 5750 5747 5745 5743 5740 5738 5737 5736 5735 5733 5732 5731 5730 5728 5728 5725 5724 5722 5720 5718 5715 5709 5702 5699 5695 5691 5689 5686 5684 5682 5679 5675 5671 5668 5666 5663 5660 5658 5655 5653 5650 5647
5751 5749 5746 5743 5740 5738 5736 5734 5733 5732 5730 5729 5727 5726 5725 5723 5721 5719 5717 5716 5714 5711 5707 5701 5696 5691 5686 5683 5680 5677 5675 5671 5668 5663 5660 5657 5654 5651 5648 5646 5643 5640 5637
5749 5747 5744 5741 5738 5735 5733 5731 5729 5728 5726 5725 5724 5722 5721 5719 5716 5714 5713 5711 5708 5705 5701 5697 5692 5686 5681 5678 5674 5671 5667 5665 5662 5658 5653 5649 5645 5641 5639 5635 5633 5630 5628
5748 5744 5741 5738 5735 5733 5730 5727 5726 5725 5723 5721 5719 5718 5716 5713 5710 5709 5709 5706 5703 5700 5697 5693 5688 5684 5678 5673 5670 5667 5662 5658 5653 5650 5646 5642 5638 5635 5630 5626 5623 5620 5618
5744 5741 5738 5735 5732 5729 5722 5719 5719 5720 5718 5715 5713 5711 5710 5707 5704 5701 5700 5698 5697 5695 5692 5688 5685 5681 5676 5672 5667 5663 5658 5653 5647 5642 5639 5635 5632 5628 5624 5620 5614 5611 5608
5740 5737 5734 5731 5727 5721 5716 5714 5713 5714 5713 5710 5707 5705 5705 5702 5699 5697 5693 5691 5689 5686 5684 5683 5680 5676 5672 5668 5662 5657 5652 5648 5643 5636 5632 5627 5624 5621 5616 5611 5606 5602 5598
5736 5733 5729 5726 5722 5716 5711 5708 5707 5708 5707 5703 5701 5699 5697 5694 5692 5689 5688 5686 5683 5680 5677 5676 5673 5670 5666 5661 5657 5652 5645 5639 5634 5629 5625 5621 5617 5612 5608 5603 5597 5593 5590
5732 5729 5725 5721 5717 5711 5705 5703 5702 5704 5700 5697 5695 5692 5690 5687 5681 5680 5681 5679 5675 5672 5668 5665 5662 5659 5656 5652 5648 5644 5638 5633 5627 5622 5618 5615 5611 5606 5601 5597 5591 5586 5582
5728 5724 5721 5717 5713 5708 5700 5698 5696 5700 5696 5692 5688 5685 5679 5677 5673 5672 5673 5671 5668 5665 5662 5658 5653 5649 5646 5642 5638 5636 5633 5629 5624 5618 5613 5609 5605 5601 5596 5592 5587 5581 5575